UAL2610 KLAX-KDEN

Flight info

Callsign UAL2610
Flight time 1h 43m
Altitude 37000
Route ORCKA5 LAS J146 DICEE BUMMP SSKII4
Aircraft B738/M-SDE2E3FGHIRWXY/LB1

Departure

Time 2026-04-23 02:21
Airport Los Angeles International Airport (KLAX)

Arrival

Time 2026-04-23 04:04
Airport Denver International Airport (KDEN)
Time Latitude Longitude Altitude Speed Heading
2026-04-23 01:48 33.94234 -118.40154 125 ft 0 kts 261°
2026-04-23 02:08 33.94235 -118.40147 125 ft 2 kts 261°
2026-04-23 02:09 33.94238 -118.40128 120 ft 2 kts 261°
2026-04-23 02:09 33.94240 -118.40108 122 ft 2 kts 261°
2026-04-23 02:09 33.94233 -118.40107 123 ft 2 kts 180°
2026-04-23 02:09 33.94221 -118.40098 122 ft 2 kts 158°
2026-04-23 02:10 33.94212 -118.40095 121 ft 0 kts 172°
2026-04-23 02:12 33.94206 -118.40094 122 ft 2 kts 171°
2026-04-23 02:12 33.94176 -118.40089 122 ft 6 kts 172°
2026-04-23 02:13 33.94135 -118.40083 123 ft 6 kts 173°
2026-04-23 02:13 33.94094 -118.40077 122 ft 6 kts 173°
2026-04-23 02:13 33.94054 -118.40071 123 ft 6 kts 172°
2026-04-23 02:13 33.94029 -118.40067 123 ft 4 kts 172°
2026-04-23 02:14 33.94001 -118.40062 122 ft 5 kts 172°
2026-04-23 02:14 33.93948 -118.40055 122 ft 9 kts 173°
2026-04-23 02:14 33.93895 -118.40026 123 ft 9 kts 132°
2026-04-23 02:14 33.93883 -118.39960 122 ft 8 kts 85°
2026-04-23 02:15 33.93903 -118.39754 125 ft 16 kts 83°
2026-04-23 02:15 33.93917 -118.39626 125 ft 15 kts 83°
2026-04-23 02:15 33.93929 -118.39503 123 ft 14 kts 83°
2026-04-23 02:16 33.93942 -118.39383 121 ft 15 kts 83°
2026-04-23 02:16 33.93955 -118.39256 122 ft 16 kts 83°
2026-04-23 02:16 33.93969 -118.39118 123 ft 18 kts 83°
2026-04-23 02:16 33.93985 -118.38960 122 ft 19 kts 83°
2026-04-23 02:17 33.94001 -118.38802 123 ft 19 kts 83°
2026-04-23 02:17 33.94017 -118.38649 123 ft 18 kts 83°
2026-04-23 02:17 33.94032 -118.38501 125 ft 17 kts 83°
2026-04-23 02:17 33.94046 -118.38359 124 ft 17 kts 83°
2026-04-23 02:18 33.94060 -118.38221 125 ft 16 kts 83°
2026-04-23 02:18 33.94073 -118.38096 125 ft 13 kts 83°
2026-04-23 02:18 33.94077 -118.38030 125 ft 5 kts 102°
2026-04-23 02:18 33.94076 -118.38025 125 ft 0 kts 110°
2026-04-23 02:19 33.94075 -118.38023 125 ft 1 kts 111°
2026-04-23 02:19 33.94050 -118.38003 125 ft 7 kts 166°
2026-04-23 02:20 33.94004 -118.37995 122 ft 7 kts 173°
2026-04-23 02:20 33.93982 -118.38013 123 ft 4 kts 259°
2026-04-23 02:20 33.93977 -118.38102 125 ft 33 kts 263°
2026-04-23 02:20 33.93916 -118.38684 125 ft 105 kts 263°
2026-04-23 02:21 33.93798 -118.39791 216 ft 153 kts 261°
2026-04-23 02:21 33.93649 -118.41054 997 ft 153 kts 263°
2026-04-23 02:21 33.93519 -118.42353 1640 ft 171 kts 265°
2026-04-23 02:21 33.93369 -118.43906 2015 ft 198 kts 264°
2026-04-23 02:22 33.93205 -118.45582 2659 ft 204 kts 265°
2026-04-23 02:22 33.92890 -118.47304 3288 ft 217 kts 253°
2026-04-23 02:22 33.92387 -118.49020 4128 ft 219 kts 251°
2026-04-23 02:22 33.91839 -118.50763 4766 ft 226 kts 251°
2026-04-23 02:23 33.91277 -118.52537 5340 ft 227 kts 252°
2026-04-23 02:23 33.90456 -118.54160 5891 ft 232 kts 226°
2026-04-23 02:23 33.88982 -118.55129 6238 ft 261 kts 193°
2026-04-23 02:23 33.87116 -118.55023 6628 ft 285 kts 162°
2026-04-23 02:24 33.85384 -118.53805 7319 ft 296 kts 136°
2026-04-23 02:24 33.84244 -118.51746 8093 ft 300 kts 108°
2026-04-23 02:24 33.84022 -118.49254 8811 ft 305 kts 77°
2026-04-23 02:24 33.84867 -118.46949 9499 ft 303 kts 45°
2026-04-23 02:25 33.86535 -118.45503 10204 ft 295 kts 13°
2026-04-23 02:25 33.88567 -118.44899 10515 ft 312 kts
2026-04-23 02:25 33.90741 -118.44366 11008 ft 325 kts
2026-04-23 02:25 33.92875 -118.43300 11702 ft 340 kts 27°
2026-04-23 02:26 33.94651 -118.41348 12457 ft 355 kts 46°
2026-04-23 02:26 33.96062 -118.38872 13194 ft 363 kts 53°
2026-04-23 02:26 33.97397 -118.36259 13870 ft 369 kts 53°
2026-04-23 02:26 33.98786 -118.33642 14482 ft 373 kts 51°
2026-04-23 02:27 34.00238 -118.31024 15121 ft 378 kts 51°
2026-04-23 02:27 34.01727 -118.28391 15741 ft 383 kts 50°
2026-04-23 02:27 34.03241 -118.25730 16380 ft 387 kts 50°
2026-04-23 02:27 34.04774 -118.23034 17012 ft 392 kts 50°
2026-04-23 02:28 34.06321 -118.20308 17636 ft 396 kts 50°
2026-04-23 02:28 34.07884 -118.17546 18245 ft 402 kts 51°
2026-04-23 02:28 34.08935 -118.15689 18604 ft 405 kts 50°
2026-04-23 02:28 34.10530 -118.12865 19165 ft 409 kts 50°
2026-04-23 02:29 34.12136 -118.10022 19726 ft 412 kts 50°
2026-04-23 02:29 34.13759 -118.07145 20253 ft 417 kts 50°
2026-04-23 02:29 34.15397 -118.04243 20781 ft 421 kts 50°
2026-04-23 02:29 34.17051 -118.01307 21309 ft 425 kts 50°
2026-04-23 02:30 34.18722 -117.98338 21814 ft 429 kts 50°
2026-04-23 02:30 34.20408 -117.95341 22302 ft 433 kts 51°
2026-04-23 02:30 34.22106 -117.92318 22750 ft 438 kts 50°
2026-04-23 02:30 34.23825 -117.89257 23209 ft 442 kts 51°
2026-04-23 02:31 34.25555 -117.86169 23733 ft 445 kts 50°
2026-04-23 02:31 34.27296 -117.83060 24146 ft 448 kts 51°
2026-04-23 02:31 34.29049 -117.79926 24567 ft 451 kts 51°
2026-04-23 02:31 34.30813 -117.76771 24963 ft 454 kts 50°
2026-04-23 02:32 34.32585 -117.73599 25381 ft 456 kts 51°
2026-04-23 02:32 34.34366 -117.70410 25794 ft 460 kts 51°
2026-04-23 02:32 34.36175 -117.67207 26196 ft 462 kts 50°
2026-04-23 02:32 34.38047 -117.64032 26586 ft 464 kts 49°
2026-04-23 02:33 34.39952 -117.60870 26948 ft 467 kts 48°
2026-04-23 02:33 34.41878 -117.57692 27329 ft 469 kts 48°
2026-04-23 02:33 34.43814 -117.54486 27698 ft 472 kts 49°
2026-04-23 02:33 34.45753 -117.51261 28065 ft 475 kts 49°
2026-04-23 02:34 34.47700 -117.48004 28423 ft 479 kts 49°
2026-04-23 02:34 34.49653 -117.44726 28776 ft 481 kts 49°
2026-04-23 02:34 34.51615 -117.41423 29125 ft 484 kts 49°
2026-04-23 02:34 34.53590 -117.38094 29458 ft 487 kts 49°
2026-04-23 02:35 34.55568 -117.34756 29792 ft 490 kts 49°
2026-04-23 02:35 34.57561 -117.31391 30118 ft 492 kts 49°
2026-04-23 02:35 34.59562 -117.28008 30392 ft 495 kts 49°
2026-04-23 02:35 34.61575 -117.24604 30652 ft 497 kts 49°
2026-04-23 02:36 34.63593 -117.21188 30910 ft 499 kts 49°
2026-04-23 02:36 34.65619 -117.17755 31154 ft 501 kts 49°
2026-04-23 02:36 34.67652 -117.14307 31384 ft 504 kts 49°
2026-04-23 02:36 34.69696 -117.10837 31625 ft 506 kts 49°
2026-04-23 02:37 34.71745 -117.07355 31831 ft 508 kts 49°
2026-04-23 02:37 34.73803 -117.03854 32090 ft 509 kts 49°
2026-04-23 02:37 34.75857 -117.00354 32409 ft 509 kts 49°
2026-04-23 02:37 34.77912 -116.96850 32778 ft 507 kts 49°
2026-04-23 02:38 34.79957 -116.93358 33131 ft 507 kts 49°
2026-04-23 02:38 34.82001 -116.89868 33429 ft 507 kts 49°
2026-04-23 02:38 34.84048 -116.86368 33751 ft 506 kts 49°
2026-04-23 02:38 34.86088 -116.82878 34059 ft 506 kts 49°
2026-04-23 02:39 34.88125 -116.79390 34298 ft 506 kts 49°
2026-04-23 02:39 34.90141 -116.75934 34498 ft 507 kts 49°
2026-04-23 02:39 34.92214 -116.72454 34687 ft 506 kts 45°
2026-04-23 02:39 34.94512 -116.69239 34904 ft 502 kts 40°
2026-04-23 02:40 34.96885 -116.66122 35146 ft 501 kts 39°
2026-04-23 02:40 34.99278 -116.63036 35334 ft 502 kts 39°
2026-04-23 02:40 35.01680 -116.59941 35524 ft 503 kts 39°
2026-04-23 02:40 35.04080 -116.56830 35733 ft 504 kts 39°
2026-04-23 02:41 35.06474 -116.53702 35950 ft 504 kts 39°
2026-04-23 02:41 35.08862 -116.50560 36153 ft 505 kts 40°
2026-04-23 02:41 35.11248 -116.47407 36343 ft 506 kts 40°
2026-04-23 02:41 35.13631 -116.44250 36573 ft 506 kts 40°
2026-04-23 02:42 35.16017 -116.41084 36785 ft 506 kts 40°
2026-04-23 02:42 35.18400 -116.37921 36924 ft 507 kts 40°
2026-04-23 02:42 35.20795 -116.34741 36973 ft 509 kts 40°
2026-04-23 02:43 35.25590 -116.28365 36964 ft 508 kts 40°
2026-04-23 02:43 35.30362 -116.22005 36967 ft 506 kts 40°
2026-04-23 02:44 35.35113 -116.15665 36963 ft 504 kts 40°
2026-04-23 02:44 35.39845 -116.09342 36963 ft 503 kts 40°
2026-04-23 02:45 35.44563 -116.03026 36966 ft 502 kts 40°
2026-04-23 02:45 35.49276 -115.96704 36976 ft 502 kts 40°
2026-04-23 02:46 35.53991 -115.90366 36980 ft 503 kts 40°
2026-04-23 02:46 35.58712 -115.84006 36979 ft 504 kts 40°
2026-04-23 02:47 35.63436 -115.77632 36989 ft 505 kts 40°
2026-04-23 02:47 35.68147 -115.71198 36986 ft 507 kts 41°
2026-04-23 02:48 35.72850 -115.64719 36988 ft 508 kts 41°
2026-04-23 02:48 35.77557 -115.58226 36991 ft 508 kts 41°
2026-04-23 02:49 35.82268 -115.51727 36998 ft 509 kts 41°
2026-04-23 02:49 35.86982 -115.45210 36979 ft 509 kts 41°
2026-04-23 02:50 35.91689 -115.38692 36975 ft 509 kts 41°
2026-04-23 02:50 35.96388 -115.32171 36981 ft 508 kts 41°
2026-04-23 02:51 36.01044 -115.25696 36963 ft 508 kts 41°
2026-04-23 02:51 36.05715 -115.19167 36937 ft 508 kts 44°
2026-04-23 02:52 36.09498 -115.11662 36929 ft 522 kts 64°
2026-04-23 02:52 36.12030 -115.03229 36936 ft 524 kts 67°
2026-04-23 02:53 36.14501 -114.94754 36864 ft 524 kts 66°
2026-04-23 02:53 36.17067 -114.86312 36864 ft 524 kts 65°
2026-04-23 02:54 36.19649 -114.77870 36853 ft 525 kts 65°
2026-04-23 02:54 36.22247 -114.69408 36843 ft 526 kts 65°
2026-04-23 02:55 36.24849 -114.60918 36829 ft 528 kts 65°
2026-04-23 02:55 36.27443 -114.52414 36834 ft 528 kts 65°
2026-04-23 02:56 36.30036 -114.43884 36834 ft 529 kts 65°
2026-04-23 02:56 36.32620 -114.35357 36847 ft 529 kts 66°
2026-04-23 02:57 36.35209 -114.26791 36855 ft 530 kts 66°
2026-04-23 02:57 36.37790 -114.18225 36827 ft 530 kts 65°
2026-04-23 02:58 36.40360 -114.09665 36853 ft 529 kts 66°
2026-04-23 02:58 36.42924 -114.01102 36874 ft 529 kts 66°
2026-04-23 02:59 36.45482 -113.92536 36864 ft 529 kts 66°
2026-04-23 02:59 36.48030 -113.83975 36885 ft 528 kts 66°
2026-04-23 03:00 36.50573 -113.75403 36892 ft 529 kts 66°
2026-04-23 03:00 36.53111 -113.66823 36897 ft 529 kts 66°
2026-04-23 03:01 36.55641 -113.58243 36902 ft 529 kts 66°
2026-04-23 03:01 36.58164 -113.49657 36901 ft 528 kts 67°
2026-04-23 03:02 36.60679 -113.41078 36913 ft 528 kts 67°
2026-04-23 03:02 36.63186 -113.32496 36926 ft 527 kts 67°
2026-04-23 03:03 36.65670 -113.23914 36936 ft 527 kts 67°
2026-04-23 03:03 36.68146 -113.15312 36951 ft 527 kts 67°
2026-04-23 03:04 36.70601 -113.06764 36971 ft 527 kts 67°
2026-04-23 03:04 36.73065 -112.98162 36981 ft 527 kts 67°
2026-04-23 03:05 36.75526 -112.89543 36974 ft 528 kts 67°
2026-04-23 03:05 36.77983 -112.80912 36980 ft 528 kts 67°
2026-04-23 03:06 36.80432 -112.72281 36958 ft 528 kts 68°
2026-04-23 03:06 36.82877 -112.63637 36939 ft 528 kts 68°
2026-04-23 03:07 36.85314 -112.54989 36923 ft 528 kts 68°
2026-04-23 03:07 36.87748 -112.46330 36912 ft 529 kts 68°
2026-04-23 03:08 36.90181 -112.37664 36913 ft 528 kts 68°
2026-04-23 03:08 36.92611 -112.29005 36900 ft 527 kts 68°
2026-04-23 03:09 36.95031 -112.20360 36898 ft 526 kts 68°
2026-04-23 03:09 36.97438 -112.11732 36886 ft 525 kts 68°
2026-04-23 03:10 36.99834 -112.03117 36875 ft 523 kts 68°
2026-04-23 03:10 37.02215 -111.94524 36859 ft 523 kts 68°
2026-04-23 03:11 37.04589 -111.85930 36853 ft 522 kts 69°
2026-04-23 03:11 37.06953 -111.77348 36860 ft 522 kts 69°
2026-04-23 03:12 37.09311 -111.68754 36873 ft 522 kts 69°
2026-04-23 03:12 37.11667 -111.60144 36895 ft 523 kts 69°
2026-04-23 03:13 37.14026 -111.51493 36890 ft 525 kts 69°
2026-04-23 03:13 37.15988 -111.44274 36871 ft 527 kts 69°
2026-04-23 03:14 37.18347 -111.35569 36851 ft 528 kts 69°
2026-04-23 03:14 37.20703 -111.26847 36826 ft 529 kts 69°
2026-04-23 03:15 37.23396 -111.18285 36783 ft 525 kts 60°
2026-04-23 03:15 37.26670 -111.10140 36776 ft 521 kts 59°
2026-04-23 03:16 37.29971 -111.02071 36768 ft 518 kts 59°
2026-04-23 03:16 37.34814 -110.89967 36771 ft 516 kts 60°
2026-04-23 03:17 37.38005 -110.81886 36773 ft 516 kts 60°
2026-04-23 03:17 37.41189 -110.73799 36769 ft 516 kts 60°
2026-04-23 03:18 37.44375 -110.65693 36773 ft 518 kts 60°
2026-04-23 03:18 37.47568 -110.57553 36767 ft 519 kts 60°
2026-04-23 03:19 37.50765 -110.49381 36775 ft 522 kts 60°
2026-04-23 03:19 37.53974 -110.41157 36776 ft 524 kts 60°
2026-04-23 03:20 37.57187 -110.32900 36789 ft 526 kts 60°
2026-04-23 03:20 37.60407 -110.24602 36780 ft 528 kts 61°
2026-04-23 03:21 37.63630 -110.16276 36750 ft 528 kts 61°
2026-04-23 03:21 37.66844 -110.07948 36788 ft 528 kts 61°
2026-04-23 03:22 37.70054 -109.99608 36800 ft 528 kts 61°
2026-04-23 03:22 37.73258 -109.91260 36807 ft 528 kts 61°
2026-04-23 03:23 37.76457 -109.82902 36801 ft 526 kts 61°
2026-04-23 03:23 37.79612 -109.74643 36837 ft 525 kts 62°
2026-04-23 03:24 37.82780 -109.66329 36842 ft 525 kts 62°
2026-04-23 03:24 37.85940 -109.58011 36852 ft 524 kts 62°
2026-04-23 03:25 37.89087 -109.49700 36827 ft 523 kts 61°
2026-04-23 03:25 37.92223 -109.41396 36812 ft 522 kts 62°
2026-04-23 03:26 37.95349 -109.33100 36800 ft 521 kts 62°
2026-04-23 03:26 37.98464 -109.24808 36800 ft 521 kts 62°
2026-04-23 03:27 38.01575 -109.16506 36787 ft 521 kts 62°
2026-04-23 03:27 38.04678 -109.08202 36796 ft 521 kts 62°
2026-04-23 03:28 38.07777 -108.99886 36773 ft 521 kts 62°
2026-04-23 03:28 38.10880 -108.91573 36790 ft 521 kts 62°
2026-04-23 03:29 38.14108 -108.83343 36786 ft 521 kts 60°
2026-04-23 03:29 38.17376 -108.75123 36775 ft 521 kts 60°
2026-04-23 03:30 38.20625 -108.66879 36761 ft 522 kts 61°
2026-04-23 03:30 38.23851 -108.58622 36764 ft 521 kts 61°
2026-04-23 03:31 38.27066 -108.50364 36766 ft 521 kts 61°
2026-04-23 03:31 38.30276 -108.42101 36767 ft 520 kts 61°
2026-04-23 03:32 38.33454 -108.33902 36761 ft 520 kts 61°
2026-04-23 03:32 38.36644 -108.25649 36775 ft 519 kts 61°
2026-04-23 03:33 38.39825 -108.17396 36797 ft 518 kts 61°
2026-04-23 03:33 38.42989 -108.09165 36852 ft 516 kts 61°
2026-04-23 03:34 38.46137 -108.00957 36891 ft 514 kts 62°
2026-04-23 03:34 38.49247 -107.92763 36912 ft 512 kts 62°
2026-04-23 03:35 38.52332 -107.84577 36914 ft 511 kts 62°
2026-04-23 03:35 38.55410 -107.76392 36906 ft 511 kts 62°
2026-04-23 03:36 38.58484 -107.68205 36858 ft 512 kts 62°
2026-04-23 03:36 38.61560 -107.59991 36806 ft 512 kts 62°
2026-04-23 03:37 38.64634 -107.51762 36778 ft 513 kts 63°
2026-04-23 03:37 38.67727 -107.43518 36758 ft 515 kts 63°
2026-04-23 03:38 38.70854 -107.35282 36769 ft 515 kts 63°
2026-04-23 03:38 38.73985 -107.27016 36785 ft 517 kts 63°
2026-04-23 03:39 38.77113 -107.18714 36814 ft 518 kts 63°
2026-04-23 03:39 38.80236 -107.10390 36782 ft 519 kts 63°
2026-04-23 03:40 38.81811 -107.06189 36274 ft 524 kts 63°
2026-04-23 03:40 38.83385 -107.01980 35753 ft 522 kts 64°
2026-04-23 03:40 38.84955 -106.97778 35156 ft 523 kts 64°
2026-04-23 03:40 38.86522 -106.93577 34582 ft 523 kts 64°
2026-04-23 03:41 38.88095 -106.89353 33928 ft 526 kts 64°
2026-04-23 03:41 38.89674 -106.85110 33250 ft 528 kts 64°
2026-04-23 03:41 38.91255 -106.80854 32577 ft 529 kts 64°
2026-04-23 03:41 38.92835 -106.76592 31919 ft 529 kts 64°
2026-04-23 03:42 38.94415 -106.72326 31248 ft 530 kts 64°
2026-04-23 03:42 38.95999 -106.68044 30560 ft 531 kts 64°
2026-04-23 03:42 38.97571 -106.63789 30283 ft 522 kts 65°
2026-04-23 03:42 38.99116 -106.59600 30001 ft 514 kts 65°
2026-04-23 03:43 39.00616 -106.55534 29650 ft 508 kts 65°
2026-04-23 03:43 39.02117 -106.51439 29130 ft 505 kts 65°
2026-04-23 03:43 39.03603 -106.47373 28637 ft 501 kts 65°
2026-04-23 03:43 39.05079 -106.43329 28154 ft 497 kts 65°
2026-04-23 03:44 39.06544 -106.39316 27673 ft 493 kts 65°
2026-04-23 03:44 39.07992 -106.35341 27234 ft 489 kts 65°
2026-04-23 03:44 39.09429 -106.31388 26765 ft 486 kts 65°
2026-04-23 03:44 39.10855 -106.27463 26296 ft 483 kts 65°
2026-04-23 03:45 39.12273 -106.23554 25811 ft 480 kts 65°
2026-04-23 03:45 39.13683 -106.19666 25321 ft 478 kts 65°
2026-04-23 03:45 39.15083 -106.15800 24803 ft 475 kts 65°
2026-04-23 03:45 39.16474 -106.11944 24285 ft 473 kts 65°
2026-04-23 03:46 39.17854 -106.08108 23758 ft 471 kts 65°
2026-04-23 03:46 39.19225 -106.04290 23220 ft 467 kts 65°
2026-04-23 03:46 39.20583 -106.00501 22658 ft 464 kts 65°
2026-04-23 03:46 39.21929 -105.96744 22118 ft 460 kts 65°
2026-04-23 03:47 39.23264 -105.93016 21598 ft 456 kts 65°
2026-04-23 03:47 39.24587 -105.89324 21080 ft 452 kts 65°
2026-04-23 03:47 39.25905 -105.85666 20585 ft 447 kts 65°
2026-04-23 03:47 39.27213 -105.82041 20128 ft 443 kts 65°
2026-04-23 03:48 39.28507 -105.78447 19679 ft 440 kts 65°
2026-04-23 03:48 39.29791 -105.74878 19230 ft 436 kts 65°
2026-04-23 03:48 39.31061 -105.71341 18848 ft 431 kts 65°
2026-04-23 03:48 39.32304 -105.67873 18677 ft 420 kts 65°
2026-04-23 03:49 39.33549 -105.64425 17755 ft 431 kts 65°
2026-04-23 03:49 39.34828 -105.60918 17324 ft 427 kts 65°
2026-04-23 03:49 39.36081 -105.57493 17137 ft 416 kts 65°
2026-04-23 03:49 39.37310 -105.54129 16958 ft 414 kts 65°
2026-04-23 03:50 39.38541 -105.50755 16809 ft 411 kts 65°
2026-04-23 03:50 39.39743 -105.47455 16683 ft 401 kts 65°
2026-04-23 03:50 39.40910 -105.44247 16627 ft 388 kts 65°
2026-04-23 03:50 39.42088 -105.41173 16537 ft 376 kts 59°
2026-04-23 03:51 39.43498 -105.38366 16273 ft 370 kts 53°
2026-04-23 03:51 39.45011 -105.35690 16024 ft 366 kts 52°
2026-04-23 03:51 39.46523 -105.33056 15783 ft 364 kts 52°
2026-04-23 03:51 39.48015 -105.30413 15529 ft 364 kts 53°
2026-04-23 03:52 39.49486 -105.27756 15268 ft 363 kts 53°
2026-04-23 03:52 39.50940 -105.25090 15054 ft 362 kts 53°
2026-04-23 03:52 39.52387 -105.22422 14938 ft 363 kts 54°
2026-04-23 03:52 39.53835 -105.19743 14914 ft 362 kts 54°
2026-04-23 03:53 39.55283 -105.17063 14751 ft 364 kts 53°
2026-04-23 03:53 39.56729 -105.14382 14521 ft 363 kts 54°
2026-04-23 03:53 39.58171 -105.11706 14298 ft 362 kts 54°
2026-04-23 03:53 39.59609 -105.09035 14081 ft 360 kts 53°
2026-04-23 03:54 39.61014 -105.06423 13849 ft 357 kts 53°
2026-04-23 03:54 39.62443 -105.03766 13621 ft 352 kts 53°
2026-04-23 03:54 39.63833 -105.01177 13382 ft 348 kts 53°
2026-04-23 03:54 39.65190 -104.98649 13131 ft 344 kts 53°
2026-04-23 03:55 39.66545 -104.96124 13036 ft 346 kts 53°
2026-04-23 03:55 39.67908 -104.93582 13008 ft 345 kts 53°
2026-04-23 03:55 39.69258 -104.91062 12996 ft 343 kts 53°
2026-04-23 03:55 39.70620 -104.88517 12997 ft 343 kts 53°
2026-04-23 03:56 39.72097 -104.86120 12966 ft 337 kts 38°
2026-04-23 03:56 39.74050 -104.84576 12799 ft 326 kts 16°
2026-04-23 03:56 39.76237 -104.84005 12486 ft 313 kts 357°
2026-04-23 03:56 39.78377 -104.83946 12357 ft 306 kts 353°
2026-04-23 03:57 39.80511 -104.83973 12164 ft 306 kts 353°
2026-04-23 03:57 39.82634 -104.83985 11949 ft 304 kts 354°
2026-04-23 03:57 39.84730 -104.83981 11734 ft 300 kts 354°
2026-04-23 03:57 39.86801 -104.83964 11520 ft 296 kts 354°
2026-04-23 03:58 39.88849 -104.83941 11307 ft 292 kts 354°
2026-04-23 03:58 39.90864 -104.83917 11093 ft 288 kts 354°
2026-04-23 03:58 39.92860 -104.83894 10822 ft 287 kts 354°
2026-04-23 03:58 39.94860 -104.83872 10491 ft 288 kts 354°
2026-04-23 03:59 39.96870 -104.83848 10151 ft 289 kts 354°
2026-04-23 03:59 39.98889 -104.83762 9774 ft 294 kts
2026-04-23 03:59 40.00209 -104.83339 9658 ft 294 kts 18°
2026-04-23 03:59 40.02319 -104.81262 9544 ft 282 kts 51°
2026-04-23 04:00 40.02944 -104.79809 9475 ft 273 kts 68°
2026-04-23 04:00 40.03315 -104.77466 9370 ft 257 kts 91°
2026-04-23 04:00 40.03089 -104.75242 9271 ft 239 kts 111°
2026-04-23 04:00 40.02429 -104.73358 9137 ft 220 kts 129°
2026-04-23 04:01 40.01471 -104.71872 8863 ft 210 kts 144°
2026-04-23 04:01 40.00306 -104.70804 8549 ft 201 kts 160°
2026-04-23 04:01 39.99035 -104.70194 8179 ft 189 kts 175°
2026-04-23 04:01 39.97835 -104.69939 8087 ft 163 kts 179°
2026-04-23 04:02 39.96742 -104.69647 7675 ft 162 kts 178°
2026-04-23 04:02 39.95622 -104.69494 7184 ft 162 kts 187°
2026-04-23 04:02 39.94470 -104.69548 6696 ft 168 kts 192°
2026-04-23 04:02 39.93274 -104.69565 6224 ft 172 kts 185°
2026-04-23 04:03 39.92110 -104.69521 5921 ft 161 kts 186°
2026-04-23 04:03 39.91016 -104.69592 5678 ft 155 kts 185°
2026-04-23 04:03 39.89930 -104.69600 5458 ft 158 kts 183°
2026-04-23 04:03 39.88828 -104.69615 5339 ft 154 kts 186°
2026-04-23 04:04 39.87854 -104.69631 5330 ft 123 kts 181°
2026-04-23 04:04 39.87121 -104.69640 5340 ft 74 kts 180°
2026-04-23 04:04 39.86865 -104.69637 5334 ft 26 kts 175°
2026-04-23 04:04 39.86746 -104.69588 5335 ft 17 kts 150°
2026-04-23 04:05 39.86644 -104.69521 5336 ft 12 kts 153°
2026-04-23 04:05 39.86603 -104.69489 5336 ft 0 kts 149°
2026-04-23 04:05 39.86596 -104.69484 5338 ft 3 kts 149°
2026-04-23 04:06 39.86565 -104.69461 5338 ft 7 kts 153°
2026-04-23 04:06 39.86525 -104.69431 5339 ft 7 kts 148°
2026-04-23 04:06 39.86484 -104.69401 5339 ft 7 kts 151°
2026-04-23 04:06 39.86434 -104.69364 5340 ft 8 kts 151°
2026-04-23 04:07 39.86384 -104.69328 5341 ft 8 kts 150°
2026-04-23 04:07 39.86333 -104.69290 5341 ft 8 kts 150°
2026-04-23 04:07 39.86270 -104.69244 5343 ft 13 kts 150°
2026-04-23 04:07 39.86194 -104.69189 5344 ft 12 kts 151°
2026-04-23 04:08 39.86119 -104.69135 5346 ft 12 kts 151°
2026-04-23 04:08 39.86050 -104.69076 5348 ft 12 kts 131°
2026-04-23 04:08 39.86036 -104.68975 5350 ft 11 kts 90°
2026-04-23 04:08 39.86035 -104.68873 5353 ft 11 kts 91°
2026-04-23 04:09 39.86035 -104.68773 5355 ft 12 kts 90°
2026-04-23 04:09 39.86034 -104.68668 5359 ft 11 kts 90°
2026-04-23 04:09 39.86034 -104.68568 5364 ft 11 kts 93°
2026-04-23 04:09 39.85982 -104.68514 5364 ft 11 kts 177°
2026-04-23 04:10 39.85909 -104.68512 5364 ft 11 kts 180°
2026-04-23 04:10 39.85832 -104.68513 5365 ft 11 kts 180°
2026-04-23 04:10 39.85756 -104.68515 5367 ft 11 kts 181°
2026-04-23 04:10 39.85694 -104.68477 5369 ft 10 kts 117°
2026-04-23 04:11 39.85687 -104.68385 5370 ft 10 kts 90°
2026-04-23 04:11 39.85686 -104.68295 5382 ft 10 kts 91°
2026-04-23 04:11 39.85685 -104.68220 5385 ft 0 kts 91°
2026-04-23 04:13 39.85680 -104.68185 5385 ft 6 kts 107°
2026-04-23 04:13 39.85670 -104.68135 5385 ft 6 kts 95°
2026-04-23 04:13 39.85670 -104.68061 5385 ft 13 kts 90°
2026-04-23 04:14 39.85669 -104.67924 5385 ft 15 kts 91°
2026-04-23 04:14 39.85667 -104.67787 5386 ft 15 kts 91°
2026-04-23 04:14 39.85667 -104.67686 5386 ft 9 kts 90°
2026-04-23 04:14 39.85701 -104.67628 5385 ft 9 kts
2026-04-23 04:15 39.85766 -104.67631 5386 ft 9 kts 12°
2026-04-23 04:15 39.85804 -104.67628 5386 ft 0 kts